Time,TemperatureF,DewpointF,PressureIn,WindDirection,WindDirectionDegrees,WindSpeedMPH,WindSpeedGustMPH,Humidity,HourlyPrecipIn,Conditions,Clouds,dailyrainin,SolarRadiationWatts/m^2,SoftwareType,DateUTC
2013-06-25 00:02:00,58.0,55.0,-100.00,NW,312,4.0,9.0,89,0.00,,,0.00,0.000000,,2013-06-25 07:02:00,
2013-06-25 00:11:00,58.0,55.0,-100.00,SSE,164,3.0,5.0,90,0.00,,,0.00,0.000000,,2013-06-25 07:11:00,
2013-06-25 00:43:00,58.0,55.0,-100.00,SSE,164,3.0,5.0,90,0.00,,,0.00,0.000000,,2013-06-25 07:43:00,
2013-06-25 00:52:00,58.0,55.0,-100.00,SSE,164,3.0,5.0,90,0.00,,,0.00,0.000000,,2013-06-25 07:52:00,
2013-06-25 01:01:00,58.0,55.0,-100.00,SSE,164,3.0,5.0,90,0.00,,,0.00,0.000000,,2013-06-25 08:01:00,
2013-06-25 01:11:00,59.0,55.0,-100.00,NW,311,5.0,7.0,88,0.00,,,0.00,0.000000,,2013-06-25 08:11:00,
2013-06-25 01:43:00,59.0,55.0,-100.00,NW,311,5.0,7.0,88,0.00,,,0.00,0.000000,,2013-06-25 08:43:00,
2013-06-25 01:53:00,59.0,55.0,-100.00,NW,311,5.0,7.0,88,0.00,,,0.00,0.000000,,2013-06-25 08:53:00,
2013-06-25 02:01:00,59.0,55.0,-100.00,NW,311,5.0,7.0,88,0.00,,,0.00,0.000000,,2013-06-25 09:01:00,
2013-06-25 02:11:00,58.0,55.0,-100.00,SSE,167,3.0,6.0,89,0.00,,,0.00,0.000000,,2013-06-25 09:11:00,
2013-06-25 02:43:00,58.0,55.0,-100.00,SSE,167,3.0,6.0,89,0.00,,,0.00,0.000000,,2013-06-25 09:43:00,
2013-06-25 02:53:00,58.0,55.0,-100.00,SSE,167,3.0,6.0,89,0.00,,,0.00,0.000000,,2013-06-25 09:53:00,
2013-06-25 03:01:00,58.0,55.0,-100.00,SSE,167,3.0,6.0,89,0.00,,,0.00,0.000000,,2013-06-25 10:01:00,
2013-06-25 03:11:00,58.0,53.0,-100.00,East,97,6.0,11.0,83,0.00,,,0.00,0.000000,,2013-06-25 10:11:00,
2013-06-25 03:33:00,58.0,53.0,-100.00,East,97,6.0,11.0,83,0.00,,,0.00,0.000000,,2013-06-25 10:33:00,
2013-06-25 03:43:00,58.0,53.0,-100.00,East,97,6.0,11.0,83,0.00,,,0.00,0.000000,,2013-06-25 10:43:00,
2013-06-25 03:52:00,58.0,53.0,-100.00,East,97,6.0,11.0,83,0.00,,,0.00,0.000000,,2013-06-25 10:52:00,
2013-06-25 04:01:00,58.0,53.0,-100.00,East,97,6.0,11.0,83,0.00,,,0.00,0.000000,,2013-06-25 11:01:00,
2013-06-25 04:11:00,59.0,54.0,-100.00,SE,139,3.0,8.0,83,0.00,,,0.00,0.000000,,2013-06-25 11:11:00,
2013-06-25 04:43:00,59.0,54.0,-100.00,SE,139,3.0,8.0,83,0.00,,,0.00,0.000000,,2013-06-25 11:43:00,
2013-06-25 04:52:00,59.0,54.0,-100.00,SE,139,3.0,8.0,83,0.00,,,0.00,0.000000,,2013-06-25 11:52:00,
2013-06-25 05:01:00,59.0,54.0,-100.00,SE,139,3.0,8.0,83,0.00,,,0.00,0.000000,,2013-06-25 12:01:00,
2013-06-25 05:11:00,57.0,53.0,-100.00,NW,321,6.0,8.0,88,0.00,,,0.00,0.000000,,2013-06-25 12:11:00,
2013-06-25 05:43:00,57.0,53.0,-100.00,NW,321,6.0,8.0,88,0.00,,,0.00,0.000000,,2013-06-25 12:43:00,
2013-06-25 05:55:00,57.0,53.0,-100.00,NW,321,6.0,8.0,88,0.00,,,0.00,0.000000,,2013-06-25 12:55:00,
2013-06-25 06:01:00,57.0,53.0,-100.00,NW,321,6.0,8.0,88,0.00,,,0.00,0.000000,,2013-06-25 13:01:00,
2013-06-25 06:11:00,57.0,53.0,-100.00,WSW,244,0.0,7.0,88,0.00,,,0.00,3.000000,,2013-06-25 13:11:00,
2013-06-25 06:42:00,57.0,53.0,-100.00,WSW,244,0.0,7.0,88,0.00,,,0.00,3.000000,,2013-06-25 13:42:00,
2013-06-25 06:53:00,57.0,53.0,-100.00,WSW,244,0.0,7.0,88,0.00,,,0.00,3.000000,,2013-06-25 13:53:00,
2013-06-25 07:01:00,57.0,53.0,-100.00,WSW,244,0.0,7.0,88,0.00,,,0.00,3.000000,,2013-06-25 14:01:00,
2013-06-25 07:11:00,62.0,52.0,-100.00,SE,146,3.0,5.0,70,0.00,,,0.00,55.000000,,2013-06-25 14:11:00,
2013-06-25 07:43:00,62.0,52.0,-100.00,SE,146,3.0,5.0,70,0.00,,,0.00,55.000000,,2013-06-25 14:43:00,
2013-06-25 07:53:00,62.0,52.0,-100.00,SE,146,3.0,5.0,70,0.00,,,0.00,55.000000,,2013-06-25 14:53:00,
2013-06-25 08:01:00,62.0,52.0,-100.00,SE,146,3.0,5.0,70,0.00,,,0.00,55.000000,,2013-06-25 15:01:00,
2013-06-25 08:11:00,64.0,52.0,-100.00,SSE,168,5.0,8.0,64,0.00,,,0.00,110.000000,,2013-06-25 15:11:00,
2013-06-25 08:44:00,64.0,52.0,-100.00,SSE,168,5.0,8.0,64,0.00,,,0.00,110.000000,,2013-06-25 15:44:00,
2013-06-25 08:53:00,64.0,52.0,-100.00,SSE,168,5.0,8.0,64,0.00,,,0.00,110.000000,,2013-06-25 15:53:00,
2013-06-25 09:03:00,64.0,52.0,-100.00,SSE,168,5.0,8.0,64,0.00,,,0.00,110.000000,,2013-06-25 16:03:00,
2013-06-25 11:11:00,75.0,55.0,-100.00,WNW,295,10.0,15.0,49,-99.99,,,0.00,728.000000,,2013-06-25 18:11:00,
2013-06-25 11:44:00,75.0,55.0,-100.00,WNW,295,10.0,15.0,49,-99.99,,,0.00,728.000000,,2013-06-25 18:44:00,
2013-06-25 11:53:00,75.0,55.0,-100.00,WNW,295,10.0,15.0,49,-99.99,,,0.00,728.000000,,2013-06-25 18:53:00,
2013-06-25 12:01:00,75.0,55.0,-100.00,WNW,295,10.0,15.0,49,-99.99,,,0.00,728.000000,,2013-06-25 19:01:00,
2013-06-25 12:11:00,74.0,56.0,-100.00,NW,315,11.0,17.0,53,0.00,,,0.00,523.000000,,2013-06-25 19:11:00,
2013-06-25 12:44:00,74.0,56.0,-100.00,NW,315,11.0,17.0,53,0.00,,,0.00,523.000000,,2013-06-25 19:44:00,
2013-06-25 12:54:00,74.0,56.0,-100.00,NW,315,11.0,17.0,53,0.00,,,0.00,523.000000,,2013-06-25 19:54:00,
2013-06-25 13:01:00,74.0,56.0,-100.00,NW,315,11.0,17.0,53,0.00,,,0.00,523.000000,,2013-06-25 20:01:00,
2013-06-25 13:11:00,76.0,57.0,-100.00,NW,307,10.0,19.0,52,0.00,,,0.00,636.000000,,2013-06-25 20:11:00,
2013-06-25 13:42:00,76.0,57.0,-100.00,NW,307,10.0,19.0,52,0.00,,,0.00,636.000000,,2013-06-25 20:42:00,
2013-06-25 13:52:00,76.0,57.0,-100.00,NW,307,10.0,19.0,52,0.00,,,0.00,636.000000,,2013-06-25 20:52:00,
2013-06-25 14:01:00,76.0,57.0,-100.00,NW,307,10.0,19.0,52,0.00,,,0.00,636.000000,,2013-06-25 21:01:00,
2013-06-25 14:11:00,81.0,58.0,-100.00,WNW,295,9.0,19.0,46,0.00,,,0.00,879.000000,,2013-06-25 21:11:00,
2013-06-25 14:43:00,81.0,58.0,-100.00,WNW,295,9.0,19.0,46,0.00,,,0.00,879.000000,,2013-06-25 21:43:00,
2013-06-25 14:53:00,81.0,58.0,-100.00,WNW,295,9.0,19.0,46,0.00,,,0.00,879.000000,,2013-06-25 21:53:00,
2013-06-25 15:01:00,81.0,58.0,-100.00,WNW,295,9.0,19.0,46,0.00,,,0.00,879.000000,,2013-06-25 22:01:00,
2013-06-25 15:11:00,78.0,57.0,-100.00,WNW,295,11.0,22.0,48,0.00,,,0.00,984.000000,,2013-06-25 22:11:00,
2013-06-25 15:42:00,78.0,57.0,-100.00,WNW,295,11.0,22.0,48,0.00,,,0.00,984.000000,,2013-06-25 22:42:00,
2013-06-25 15:52:00,78.0,57.0,-100.00,WNW,295,11.0,22.0,48,0.00,,,0.00,984.000000,,2013-06-25 22:52:00,
2013-06-25 16:01:00,78.0,57.0,-100.00,WNW,295,11.0,22.0,48,0.00,,,0.00,984.000000,,2013-06-25 23:01:00,
2013-06-25 16:11:00,77.0,56.0,-100.00,NW,312,12.0,17.0,49,0.00,,,0.00,524.000000,,2013-06-25 23:11:00,
2013-06-25 16:44:00,77.0,56.0,-100.00,NW,312,12.0,17.0,49,0.00,,,0.00,524.000000,,2013-06-25 23:44:00,
2013-06-25 16:52:00,77.0,56.0,-100.00,NW,312,12.0,17.0,49,0.00,,,0.00,524.000000,,2013-06-25 23:52:00,
2013-06-25 17:01:00,77.0,56.0,-100.00,NW,312,12.0,17.0,49,0.00,,,0.00,524.000000,,2013-06-26 00:01:00,
2013-06-25 18:11:00,76.0,60.0,-100.00,NW,319,11.0,19.0,57,-99.99,,,0.00,501.000000,,2013-06-26 01:11:00,
2013-06-25 18:33:00,76.0,60.0,-100.00,NW,319,11.0,19.0,57,-99.99,,,0.00,501.000000,,2013-06-26 01:33:00,
2013-06-25 18:43:00,76.0,60.0,-100.00,NW,319,11.0,19.0,57,-99.99,,,0.00,501.000000,,2013-06-26 01:43:00,
2013-06-25 18:53:00,76.0,60.0,-100.00,NW,319,11.0,19.0,57,-99.99,,,0.00,501.000000,,2013-06-26 01:53:00,
2013-06-25 19:01:00,76.0,60.0,-100.00,NW,319,11.0,19.0,57,-99.99,,,0.00,501.000000,,2013-06-26 02:01:00,
2013-06-25 19:11:00,73.0,60.0,-100.00,NW,309,8.0,15.0,63,0.00,,,0.00,264.000000,,2013-06-26 02:11:00,
2013-06-25 19:43:00,73.0,60.0,-100.00,NW,309,8.0,15.0,63,0.00,,,0.00,264.000000,,2013-06-26 02:43:00,
2013-06-25 19:53:00,73.0,60.0,-100.00,NW,309,8.0,15.0,63,0.00,,,0.00,264.000000,,2013-06-26 02:53:00,
2013-06-25 20:01:00,73.0,60.0,-100.00,NW,309,8.0,15.0,63,0.00,,,0.00,264.000000,,2013-06-26 03:01:00,
2013-06-25 20:11:00,68.0,60.0,-100.00,WNW,301,8.0,13.0,75,0.00,,,0.00,105.000000,,2013-06-26 03:11:00,
2013-06-25 20:33:00,68.0,60.0,-100.00,WNW,301,8.0,13.0,75,0.00,,,0.00,105.000000,,2013-06-26 03:33:00,
2013-06-25 20:43:00,68.0,60.0,-100.00,WNW,301,8.0,13.0,75,0.00,,,0.00,105.000000,,2013-06-26 03:43:00,
2013-06-25 20:52:00,68.0,60.0,-100.00,WNW,301,8.0,13.0,75,0.00,,,0.00,105.000000,,2013-06-26 03:52:00,
2013-06-25 21:01:00,68.0,60.0,-100.00,WNW,301,8.0,13.0,75,0.00,,,0.00,105.000000,,2013-06-26 04:01:00,
2013-06-25 21:11:00,62.0,59.0,-100.00,WNW,293,3.0,13.0,90,0.00,,,0.00,5.000000,,2013-06-26 04:11:00,
2013-06-25 21:33:00,62.0,59.0,-100.00,WNW,293,3.0,13.0,90,0.00,,,0.00,5.000000,,2013-06-26 04:33:00,
2013-06-25 21:43:00,62.0,59.0,-100.00,WNW,293,3.0,13.0,90,0.00,,,0.00,5.000000,,2013-06-26 04:43:00,
2013-06-25 21:53:00,62.0,59.0,-100.00,WNW,293,3.0,13.0,90,0.00,,,0.00,5.000000,,2013-06-26 04:53:00,
2013-06-25 22:02:00,62.0,59.0,-100.00,WNW,293,3.0,13.0,90,0.00,,,0.00,5.000000,,2013-06-26 05:02:00,
2013-06-25 22:11:00,61.0,58.0,-100.00,East,84,0.0,3.0,91,0.00,,,0.00,0.000000,,2013-06-26 05:11:00,
2013-06-25 22:43:00,61.0,58.0,-100.00,East,84,0.0,3.0,91,0.00,,,0.00,0.000000,,2013-06-26 05:43:00,
2013-06-25 22:52:00,61.0,58.0,-100.00,East,84,0.0,3.0,91,0.00,,,0.00,0.000000,,2013-06-26 05:52:00,
2013-06-25 23:01:00,61.0,58.0,-100.00,East,84,0.0,3.0,91,0.00,,,0.00,0.000000,,2013-06-26 06:01:00,
2013-06-25 23:11:00,59.0,58.0,-100.00,NW,318,3.0,4.0,95,0.00,,,0.00,0.000000,,2013-06-26 06:11:00,
2013-06-25 23:44:00,59.0,58.0,-100.00,NW,318,3.0,4.0,95,0.00,,,0.00,0.000000,,2013-06-26 06:44:00,
2013-06-25 23:53:00,59.0,58.0,-100.00,NW,318,3.0,4.0,95,0.00,,,0.00,0.000000,,2013-06-26 06:53:00,